TimeMST,TemperatureF,Dew PointF,Humidity,Sea Level PressureIn,VisibilityMPH,Wind Direction,Wind SpeedMPH,Gust SpeedMPH,PrecipitationIn,Events,Conditions,WindDirDegrees,DateUTC
12:53 AM,51.1,27.0,39,29.80,10.0,North,6.9,-,N/A,,Clear,10,2012-11-21 07:53:00
1:53 AM,57.9,25.0,28,29.76,10.0,WSW,9.2,-,N/A,,Clear,250,2012-11-21 08:53:00
2:53 AM,51.1,27.0,39,29.78,10.0,NW,13.8,-,N/A,,Clear,310,2012-11-21 09:53:00
3:53 AM,46.9,27.0,46,29.78,10.0,Calm,Calm,-,N/A,,Clear,0,2012-11-21 10:53:00
4:53 AM,48.9,27.0,43,29.77,10.0,NW,8.1,-,N/A,,Clear,320,2012-11-21 11:53:00
5:53 AM,46.0,27.0,47,29.78,10.0,WNW,10.4,-,N/A,,Partly Cloudy,290,2012-11-21 12:53:00
6:53 AM,45.0,27.0,49,29.73,10.0,Calm,Calm,-,N/A,,Clear,0,2012-11-21 13:53:00
7:53 AM,48.9,28.0,44,29.71,10.0,SSE,10.4,-,N/A,,Clear,150,2012-11-21 14:53:00
9:53 AM,60.1,28.0,30,29.65,10.0,SSE,16.1,19.6,N/A,,Clear,160,2012-11-21 16:53:00
10:53 AM,63.0,27.0,26,29.64,10.0,WSW,6.9,-,N/A,,Clear,240,2012-11-21 17:53:00
11:53 AM,66.9,24.1,20,29.58,10.0,SSW,19.6,32.2,N/A,,Clear,210,2012-11-21 18:53:00
12:53 PM,64.9,25.0,22,29.58,10.0,SW,23.0,27.6,N/A,,Clear,230,2012-11-21 19:53:00
1:53 PM,64.9,26.1,23,29.57,10.0,WSW,10.4,-,N/A,,Clear,240,2012-11-21 20:53:00
2:53 PM,63.0,25.0,24,29.61,10.0,WSW,15.0,28.8,N/A,,Clear,240,2012-11-21 21:53:00
3:53 PM,59.0,25.0,27,29.65,10.0,NNW,8.1,-,N/A,,Mostly Cloudy,330,2012-11-21 22:53:00
4:53 PM,54.0,26.1,34,29.66,10.0,South,9.2,-,N/A,,Partly Cloudy,190,2012-11-21 23:53:00
5:53 PM,55.0,24.1,30,29.68,10.0,SW,8.1,-,N/A,,Clear,230,2012-11-22 00:53:00
6:53 PM,51.1,27.0,39,29.74,10.0,NW,5.8,-,N/A,,Mostly Cloudy,310,2012-11-22 01:53:00
7:53 PM,43.0,34.0,71,29.76,10.0,NNW,13.8,26.5,N/A,,Clear,330,2012-11-22 02:53:00
8:53 PM,42.1,33.1,70,29.77,10.0,NNW,16.1,27.6,N/A,,Clear,330,2012-11-22 03:53:00
9:53 PM,42.1,30.9,65,29.76,10.0,North,27.6,35.7,N/A,,Partly Cloudy,350,2012-11-22 04:53:00
10:53 PM,39.9,30.0,68,29.79,10.0,NNW,24.2,35.7,N/A,,Overcast,330,2012-11-22 05:53:00
11:53 PM,36.0,27.0,70,29.81,8.0,NNW,31.1,42.6,0.00,Snow,Light Snow,330,2012-11-22 06:53:00